Domov               UVHVVR             MKGP            O straneh              
ZDRAVSTVENO VARSTVO RASTLIN
  MREŽA AGROMET. POSTAJ
 ► PROGNOSTIČNA OBVESTILA
AGROMETEOROLOŠKI PODATKI -
ARSO
OBVLADOVANJE TVEGANJ ZARADI
NEUGODNIH VREMENSKIH RAZMER
  ► NARAVNE NESREČE
  ► SUŠA/MOČA
  ► NAMAKANJE
  ► ŽLED (gozdarstvo)
KARTOGRAFSKI PRIKAZI
SPLETNE POVEZAVE
PROJEKTI IN PUBLIKACIJE

AGROMETEOROLOŠKA MREŽA: VREMENSKE POSTAJE IN FENOLOŠKA OPAZOVANJA

Pregled podatkov za lokacijo Senožeti, meteorološka postaja 37929

Pregled senzorjev na lokaciji

ID Ime Zadnja
vrednost
Datum
zadnje
spremembe
Tip
senzorja
1791 Omočenost lista (U) 0 U 25.2.2018 12:30 A730WET
1794 Padavine (mm) 0 mm 25.2.2018 12:30 Rain-O-Matic
1793 Relativna vlaga 2 m (% RH) 49,65 % RH 25.2.2018 12:30 50YA
1792 Temperatura 2 m (°C) -4,05 °C 25.2.2018 12:30 50YA

Pregled podatkov zadnjih 24 ur

Zap.
št.
Datum in čas Senožeti
Omočenost
lista
Padavine Relativna
vlaga
2
m
Temperatura
2
m
1 25.2.2018 12:30
2 25.2.2018 12:00 0 0 49,1 -4,3
3 25.2.2018 11:30 0 0 48,5 -4,5
4 25.2.2018 11:00 0 0 47,6 -4,7
5 25.2.2018 10:30 0 0 46,6 -4,9
6 25.2.2018 10:00 0 0 46,9 -5,2
7 25.2.2018 09:30 0 0 48,9 -5,9
8 25.2.2018 09:00 0 0 52,7 -6,3
9 25.2.2018 08:30 0 0 55,8 -6,8
10 25.2.2018 08:00 0 0 60 -7,3
11 25.2.2018 07:30 0 0 63,5 -7,1
12 25.2.2018 07:00 0 0 64,4 -6,7
13 25.2.2018 06:30 0 0 63 -6,4
14 25.2.2018 06:00 0 0 61,1 -6,1
15 25.2.2018 05:30 0 0 58,2 -5,9
16 25.2.2018 05:00 0 0 55,3 -5,6
17 25.2.2018 04:30 0 0 54,8 -5,5
18 25.2.2018 04:00 0 0 54,4 -5,3
19 25.2.2018 03:30 0 0 52,7 -5,1
20 25.2.2018 03:00 0 0 52,7 -4,9
21 25.2.2018 02:30 0 0 52,6 -4,7
22 25.2.2018 02:00 0 0 54,1 -4,4
23 25.2.2018 01:30 0 0 56,4 -4,3
24 25.2.2018 01:00 0 0 59 -4,3
25 25.2.2018 00:30 0 0 60 -4,2
26 25.2.2018 00:00 0 0 61,4 -3,9
27 24.2.2018 23:30 0 0 63,1 -3,5
28 24.2.2018 23:00 0 0 63,1 -3,2
29 24.2.2018 22:30 0 0 60,6 -2,9
30 24.2.2018 22:00 0 0 58,7 -2,6
31 24.2.2018 21:30 0 0 59,4 -2,5
32 24.2.2018 21:00 0 0 61,5 -2,4
33 24.2.2018 20:30 0 0 62,2 -2,2
34 24.2.2018 20:00 0 0 61,6 -1,9
35 24.2.2018 19:30 0 0 59,6 -1,7
36 24.2.2018 19:00 0 0 57,5 -1,5
37 24.2.2018 18:30 0 0 57 -1,3
38 24.2.2018 18:00 0 0 59 -1,1
39 24.2.2018 17:30 0 0 62,9 -0,9
40 24.2.2018 17:00 0 0 68,7 -0,5
41 24.2.2018 16:30 0 0 70,7 -0,1
42 24.2.2018 16:00 0 0,2 75,5 0,2
43 24.2.2018 15:30 0 0 74,9 0,6
44 24.2.2018 15:00 0 0 75,2 0,7
45 24.2.2018 14:30 0 0 74,3 1
46 24.2.2018 14:00 0 0 74,8 0,8
47 24.2.2018 13:30 0 0 73,2 1,1
48 24.2.2018 13:00 0 0 70,9 1,1
© 2011 Ministrstvo za kmetijstvo, gozdarstvo in prehrano. Vse pravice pridržane.